パンスターズ彗星

C/2016 Q2 ( PanSTARRS )

English version
Home page
Updated on December 24, 2019

---------------------------------------------------------------------

・ プロフィール

発見日 2016年8月26日
発見光度 21.6等
発見者 Pan-STARRS 1 telescope (Haleakala)

・ 写真集

・ 軌道要素

Epoch 2021 May 26.0 TT = JDT 2459360.5
T 2021 May 11.89278 TT                                  Williams
q   7.0818551            (2000.0)            P               Q
z  -0.0000963      Peri.   84.52924     -0.12667284     -0.80693035
 +/-0.0000017      Node   322.29574     -0.66688127     +0.49981674
e   1.0006823      Incl.  109.38826     +0.73431830     +0.31471674
From 129 observations 2016 Aug. 26-2019 Oct. 29, mean residual 0".5.

・ 星図

・ 光度変化

        m1 = 9.5 + 5 logΔ + 5.0 log r

---------------------------------------------------------------------

軌道要素はM.P.E.C. 2019-V116に掲載されたものです。
星図はステラナビゲータ Ver.10 (アストロアーツ) で作成したものです。
光度グラフはComet for Windowsで作成したものです。

---------------------------------------------------------------------

Copyright(C) Seiichi Yoshida (comet@aerith.net). All rights reserved.